This is the latest recevied weather packets stored in our database for station/object DL9RAN-11. If no packets are shown the sender has not sent any weather packets the latest 10 day(s).
| Time | Temp. | Humidity | Pressure | Rain* | Wind** | Luminosity | Snow |
|---|---|---|---|---|---|---|---|
| 1788087218 | 26.67° C | 59% | 1019.8 hPa | - | - | - | - |
| 1788086917 | 26.11° C | 60% | 1019.8 hPa | - | - | - | - |
| 1788086489 | 26.11° C | 60% | 1019.8 hPa | - | - | - | - |
| 1788086109 | 26.11° C | 60% | 1019.8 hPa | - | - | - | - |
| 1788085739 | 26.11° C | 61% | 1019.7 hPa | - | - | - | - |
| 1788085437 | 26.11° C | 61% | 1019.8 hPa | - | - | - | - |
| 1788085136 | 26.11° C | 62% | 1019.8 hPa | - | - | - | - |
| 1788084834 | 26.11° C | 62% | 1019.9 hPa | - | - | - | - |
| 1788084533 | 26.11° C | 62% | 1019.9 hPa | - | - | - | - |
| 1788082423 | 24.44° C | 67% | 1020.1 hPa | - | - | - | - |
| 1788082121 | 24.44° C | 69% | 1020.1 hPa | - | - | - | - |
| 1788081615 | 23.33° C | 70% | 1020 hPa | - | - | - | - |
| 1788079710 | 20° C | 77% | 1020.1 hPa | - | - | - | - |
| 1788079409 | 20° C | 77% | 1020.1 hPa | - | - | - | - |
| 1788078293 | 19.44° C | 80% | 1020.2 hPa | - | - | - | - |
| 1788077190 | 18.89° C | 82% | 1020.3 hPa | - | - | - | - |
| 1788076890 | 18.89° C | 82% | 1020.3 hPa | - | - | - | - |
| 1788076243 | 18.33° C | 83% | 1020.3 hPa | - | - | - | - |
| 1788075475 | 17.78° C | 84% | 1020.5 hPa | - | - | - | - |
| 1788075174 | 17.78° C | 85% | 1020.6 hPa | - | - | - | - |
| 1788074596 | 17.78° C | 85% | 1020.6 hPa | - | - | - | - |
| 1788074295 | 17.22° C | 85% | 1020.5 hPa | - | - | - | - |
| 1788073594 | 17.22° C | 85% | 1020.2 hPa | - | - | - | - |
| 1788072825 | 16.67° C | 85% | 1020.1 hPa | - | - | - | - |
| 1788072525 | 16.67° C | 85% | 1020.1 hPa | - | - | - | - |
* Rain since midnight (hover to see other rain measurements)
** Current wind speed in m/s (hover to see current wind gust speed)